SPMJK LSZR-EPKT

Flight info

Callsign SPMJK
Flight time N/A
Altitude 41000
Route KPT L856 TRAUN DCT LANUX DCT BAVOK
Aircraft HDJT/L-SABDGRWY/H

Departure

Time 2026-04-21 10:26
Airport Sankt Gallen Altenrhein Airport (LSZR)

Arrival

Time N/A
Airport Katowice Wojciech Korfanty International Airport (EPKT)
Time Latitude Longitude Altitude Speed Heading
2026-04-21 10:16 47.48726 9.55215 1310 ft 0 kts
2026-04-21 10:23 47.48741 9.55225 1310 ft 6 kts 54°
2026-04-21 10:23 47.48738 9.55324 1310 ft 15 kts 105°
2026-04-21 10:24 47.48714 9.55533 1310 ft 26 kts 98°
2026-04-21 10:24 47.48682 9.55853 1310 ft 36 kts 99°
2026-04-21 10:24 47.48643 9.56219 1310 ft 36 kts 99°
2026-04-21 10:24 47.48604 9.56577 1310 ft 36 kts 98°
2026-04-21 10:25 47.48568 9.56936 1310 ft 31 kts 99°
2026-04-21 10:25 47.48504 9.57081 1310 ft 14 kts 194°
2026-04-21 10:25 47.48425 9.57064 1311 ft 9 kts 186°
2026-04-21 10:25 47.48405 9.57038 1311 ft 3 kts 268°
2026-04-21 10:26 47.48409 9.56978 1310 ft 15 kts 278°
2026-04-21 10:26 47.48457 9.56519 1308 ft 77 kts 278°
2026-04-21 10:26 47.48575 9.55416 1366 ft 134 kts 279°
2026-04-21 10:26 47.48776 9.53978 1939 ft 154 kts 284°
2026-04-21 10:27 47.48957 9.52921 2462 ft 163 kts 286°
2026-04-21 10:27 47.49887 9.51266 3540 ft 165 kts 346°
2026-04-21 10:27 47.50640 9.51151 4076 ft 165 kts
2026-04-21 10:27 47.51965 9.52282 5161 ft 173 kts 42°
2026-04-21 10:28 47.52912 9.53469 5950 ft 182 kts 39°
2026-04-21 10:28 47.53570 9.54270 6472 ft 188 kts 39°
2026-04-21 10:28 47.54598 9.55539 7227 ft 196 kts 38°
2026-04-21 10:28 47.55655 9.56850 8027 ft 201 kts 38°
2026-04-21 10:29 47.56742 9.58203 8863 ft 206 kts 37°
2026-04-21 10:29 47.57853 9.59580 9701 ft 210 kts 37°
2026-04-21 10:29 47.58987 9.60987 10513 ft 214 kts 37°
2026-04-21 10:29 47.60065 9.62547 11316 ft 221 kts 52°
2026-04-21 10:30 47.60745 9.64631 12103 ft 228 kts 71°
2026-04-21 10:30 47.61179 9.66898 12857 ft 234 kts 71°
2026-04-21 10:30 47.61651 9.69243 13614 ft 240 kts 70°
2026-04-21 10:30 47.62135 9.71639 14328 ft 245 kts 70°
2026-04-21 10:31 47.62625 9.74097 14996 ft 251 kts 70°
2026-04-21 10:31 47.63122 9.76592 15627 ft 258 kts 70°
2026-04-21 10:31 47.63639 9.79187 16277 ft 265 kts 70°
2026-04-21 10:31 47.64168 9.81849 16942 ft 271 kts 70°
2026-04-21 10:32 47.64704 9.84565 17610 ft 276 kts 70°
2026-04-21 10:32 47.65248 9.87297 18235 ft 283 kts 69°
2026-04-21 10:32 47.65813 9.90138 18788 ft 290 kts 69°
2026-04-21 10:32 47.66388 9.93063 19330 ft 296 kts 69°
2026-04-21 10:33 47.66969 9.95996 19871 ft 301 kts 69°
2026-04-21 10:33 47.67566 9.99023 20436 ft 307 kts 69°
2026-04-21 10:33 47.68160 10.02053 20993 ft 311 kts 68°
2026-04-21 10:33 47.68769 10.05155 21577 ft 315 kts 68°
2026-04-21 10:34 47.69387 10.08301 22152 ft 319 kts 68°
2026-04-21 10:34 47.70017 10.11499 22680 ft 326 kts 68°
2026-04-21 10:34 47.70652 10.14766 23199 ft 331 kts 68°
2026-04-21 10:34 47.71292 10.18043 23763 ft 334 kts 67°
2026-04-21 10:35 47.71945 10.21394 24218 ft 338 kts 67°
2026-04-21 10:35 47.72602 10.24774 24675 ft 341 kts 67°
2026-04-21 10:35 47.73261 10.28174 25154 ft 344 kts 67°
2026-04-21 10:35 47.73921 10.31577 25619 ft 347 kts 67°
2026-04-21 10:36 47.74578 10.35049 26095 ft 352 kts 70°
2026-04-21 10:36 47.75017 10.38655 26549 ft 359 kts 75°
2026-04-21 10:36 47.75401 10.42328 27027 ft 362 kts 75°
2026-04-21 10:36 47.75812 10.46049 27493 ft 365 kts 74°
2026-04-21 10:37 47.76244 10.49787 27942 ft 368 kts 74°
2026-04-21 10:37 47.76668 10.53572 28400 ft 372 kts 74°
2026-04-21 10:37 47.77080 10.57347 28855 ft 376 kts 74°
2026-04-21 10:37 47.77508 10.61202 29307 ft 379 kts 74°
2026-04-21 10:38 47.77941 10.65100 29753 ft 383 kts 74°
2026-04-21 10:38 47.78374 10.69033 30200 ft 387 kts 74°
2026-04-21 10:38 47.78809 10.72996 30589 ft 389 kts 74°
2026-04-21 10:38 47.79240 10.76979 31081 ft 388 kts 74°
2026-04-21 10:39 47.79666 10.80897 31548 ft 387 kts 74°
2026-04-21 10:39 47.80099 10.84858 32031 ft 387 kts 74°
2026-04-21 10:39 47.80526 10.88809 32518 ft 386 kts 74°
2026-04-21 10:39 47.80951 10.92760 33006 ft 385 kts 74°
2026-04-21 10:40 47.81370 10.96658 33478 ft 384 kts 74°
2026-04-21 10:40 47.81794 11.00588 33952 ft 383 kts 74°
2026-04-21 10:40 47.82211 11.04507 34373 ft 382 kts 75°
2026-04-21 10:40 47.82619 11.08370 34772 ft 380 kts 75°
2026-04-21 10:41 47.83034 11.12258 35179 ft 379 kts 75°
2026-04-21 10:41 47.83440 11.16140 35589 ft 377 kts 75°
2026-04-21 10:41 47.83840 11.19995 35996 ft 375 kts 76°
2026-04-21 10:41 47.84235 11.23767 36394 ft 373 kts 76°
2026-04-21 10:42 47.84631 11.27575 36797 ft 371 kts 76°
2026-04-21 10:42 47.85025 11.31376 37184 ft 369 kts 76°
2026-04-21 10:42 47.85409 11.35109 37562 ft 367 kts 77°
2026-04-21 10:42 47.85797 11.38878 37948 ft 365 kts 77°
2026-04-21 10:43 47.86180 11.42624 38324 ft 364 kts 77°
2026-04-21 10:43 47.86557 11.46302 38682 ft 362 kts 78°
2026-04-21 10:43 47.86932 11.50012 38979 ft 361 kts 78°
2026-04-21 10:43 47.87308 11.53712 39237 ft 360 kts 78°
2026-04-21 10:44 47.87683 11.57421 39478 ft 360 kts 78°
2026-04-21 10:44 47.88051 11.61074 39714 ft 360 kts 78°
2026-04-21 10:44 47.88420 11.64768 39952 ft 360 kts 78°
2026-04-21 10:44 47.88790 11.68459 40186 ft 359 kts 78°
2026-04-21 10:45 47.89160 11.72165 40412 ft 359 kts 78°
2026-04-21 10:45 47.89522 11.75802 40643 ft 359 kts 78°
2026-04-21 10:45 47.89885 11.79482 40873 ft 359 kts 78°
2026-04-21 10:45 47.90250 11.83168 41101 ft 359 kts 78°
2026-04-21 10:46 47.90623 11.86887 41118 ft 366 kts 78°
2026-04-21 10:46 47.91383 11.94566 41134 ft 380 kts 79°
2026-04-21 10:47 47.92155 12.02444 41127 ft 393 kts 79°
2026-04-21 10:47 47.92953 12.10637 41139 ft 404 kts 79°
2026-04-21 10:48 47.93761 12.18998 41138 ft 414 kts 79°
2026-04-21 10:48 47.94579 12.27606 41140 ft 422 kts 79°
2026-04-21 10:49 47.95397 12.36327 41139 ft 429 kts 79°
2026-04-21 10:49 47.96224 12.45190 41142 ft 434 kts 80°
2026-04-21 10:50 47.97052 12.54167 41142 ft 438 kts 80°
2026-04-21 10:50 47.98710 12.62846 41145 ft 432 kts 61°
2026-04-21 10:51 48.01384 12.70836 41142 ft 433 kts 61°
2026-04-21 10:51 48.03924 12.79040 41145 ft 433 kts 61°
2026-04-21 10:52 48.06529 12.87122 41145 ft 434 kts 61°
2026-04-21 10:52 48.09084 12.95275 41148 ft 434 kts 62°
2026-04-21 10:53 48.11686 13.03483 41148 ft 434 kts 61°
2026-04-21 10:53 48.14236 13.11624 41154 ft 434 kts 62°
2026-04-21 10:54 48.16807 13.19822 41158 ft 434 kts 62°
2026-04-21 10:54 48.19353 13.27984 41161 ft 434 kts 62°
2026-04-21 10:55 48.21920 13.36229 41155 ft 434 kts 62°
2026-04-21 10:55 48.24470 13.44453 41157 ft 434 kts 62°
2026-04-21 10:56 48.27002 13.52648 41156 ft 434 kts 62°
2026-04-21 10:56 48.29530 13.60851 41158 ft 434 kts 62°
2026-04-21 10:57 48.32057 13.69080 41159 ft 434 kts 62°
2026-04-21 10:57 48.34586 13.77342 41161 ft 434 kts 62°
2026-04-21 10:58 48.37108 13.85612 41162 ft 434 kts 62°
2026-04-21 10:58 48.39607 13.93831 41163 ft 434 kts 62°
2026-04-21 10:59 48.42114 14.02104 41165 ft 434 kts 62°
2026-04-21 10:59 48.44603 14.10348 41166 ft 434 kts 62°
2026-04-21 11:00 48.47107 14.18667 41163 ft 434 kts 62°
2026-04-21 11:00 48.49579 14.26908 41165 ft 434 kts 63°
2026-04-21 11:01 48.52068 14.35232 41163 ft 433 kts 63°
2026-04-21 11:01 48.54535 14.43513 41162 ft 433 kts 63°
2026-04-21 11:02 48.58222 14.55941 41161 ft 433 kts 63°
2026-04-21 11:02 48.60687 14.64283 41169 ft 433 kts 63°
2026-04-21 11:03 48.63132 14.72591 41164 ft 433 kts 63°
2026-04-21 11:03 48.65572 14.80902 41169 ft 433 kts 63°
2026-04-21 11:04 48.67446 14.89581 41164 ft 438 kts 80°
2026-04-21 11:04 48.67733 14.98690 41168 ft 440 kts 88°
2026-04-21 11:05 48.68060 15.07947 41160 ft 439 kts 83°
2026-04-21 11:05 48.68399 15.17114 41163 ft 439 kts 86°
2026-04-21 11:06 48.68700 15.26370 41158 ft 439 kts 85°
2026-04-21 11:06 48.69022 15.35569 41155 ft 439 kts 86°
2026-04-21 11:07 48.69317 15.44811 41153 ft 438 kts 85°
2026-04-21 11:07 48.69615 15.54029 41150 ft 438 kts 86°
2026-04-21 11:08 48.69903 15.63247 41145 ft 438 kts 86°
2026-04-21 11:08 48.70180 15.72412 41144 ft 438 kts 86°
2026-04-21 11:09 48.70453 15.81641 41140 ft 437 kts 86°
2026-04-21 11:09 48.70716 15.90796 41132 ft 437 kts 86°
2026-04-21 11:10 48.70973 15.99954 41128 ft 437 kts 86°
2026-04-21 11:10 48.71223 16.09169 41129 ft 436 kts 86°
2026-04-21 11:11 48.71465 16.18371 41125 ft 436 kts 86°
2026-04-21 11:11 48.71700 16.27500 41125 ft 436 kts 86°
2026-04-21 11:12 48.71927 16.36688 41122 ft 435 kts 86°
2026-04-21 11:12 48.72144 16.45793 41121 ft 435 kts 86°
2026-04-21 11:13 48.72359 16.54963 41120 ft 435 kts 86°
2026-04-21 11:13 48.72563 16.64114 41118 ft 434 kts 86°
2026-04-21 11:14 48.72760 16.73219 41115 ft 434 kts 86°
2026-04-21 11:14 48.73210 16.80775 41113 ft 431 kts 75°
2026-04-21 11:15 48.74878 16.89491 41108 ft 429 kts 71°
2026-04-21 11:15 48.76467 16.98187 41101 ft 430 kts 73°
2026-04-21 11:16 48.78103 17.06933 41101 ft 429 kts 72°
2026-04-21 11:16 48.79506 17.15705 41097 ft 430 kts 75°
2026-04-21 11:17 48.80924 17.24535 41098 ft 430 kts 75°
2026-04-21 11:17 48.82298 17.33332 41099 ft 430 kts 75°
2026-04-21 11:18 48.83682 17.42125 41101 ft 430 kts 75°
2026-04-21 11:18 48.85057 17.50970 41098 ft 430 kts 75°
2026-04-21 11:19 48.86433 17.59848 41100 ft 430 kts 75°
2026-04-21 11:19 48.87793 17.68677 41091 ft 430 kts 75°
2026-04-21 11:20 48.89153 17.77539 41086 ft 430 kts 75°
2026-04-21 11:20 48.90495 17.86352 41072 ft 430 kts 75°
2026-04-21 11:21 48.91841 17.95235 41071 ft 431 kts 75°
2026-04-21 11:21 48.93182 18.04133 41070 ft 431 kts 75°
2026-04-21 11:22 48.94506 18.12967 41069 ft 431 kts 75°
2026-04-21 11:22 48.95834 18.21871 41067 ft 431 kts 75°
2026-04-21 11:23 48.97147 18.30742 41074 ft 430 kts 75°
2026-04-21 11:23 48.98461 18.39657 41082 ft 430 kts 76°
2026-04-21 11:24 48.99758 18.48513 41086 ft 430 kts 76°
2026-04-21 11:24 49.01056 18.57432 41091 ft 430 kts 76°
2026-04-21 11:25 49.02346 18.66334 41091 ft 429 kts 76°
2026-04-21 11:25 49.03619 18.75185 41091 ft 429 kts 76°
2026-04-21 11:26 49.04888 18.84047 41088 ft 429 kts 76°
2026-04-21 11:26 49.06153 18.92938 41083 ft 429 kts 76°
2026-04-21 11:27 49.07407 19.01803 41076 ft 429 kts 76°
2026-04-21 11:27 49.08655 19.10685 41064 ft 429 kts 76°
2026-04-21 11:28 49.09902 19.19602 41066 ft 429 kts 76°
2026-04-21 11:28 49.11136 19.28484 41063 ft 429 kts 76°
2026-04-21 11:29 49.12362 19.37375 41062 ft 429 kts 76°
2026-04-21 11:29 49.13589 19.46301 41062 ft 429 kts 76°
2026-04-21 11:30 49.14798 19.55181 41064 ft 429 kts 76°
2026-04-21 11:30 49.16012 19.64122 41058 ft 429 kts 77°
2026-04-21 11:31 49.17215 19.73065 41065 ft 428 kts 77°
2026-04-21 11:31 49.18408 19.81957 41067 ft 428 kts 77°
2026-04-21 11:32 49.19592 19.90869 41075 ft 428 kts 77°
2026-04-21 11:32 49.20783 19.99850 40500 ft 437 kts 77°
2026-04-21 11:33 49.21383 20.04418 39861 ft 436 kts 77°
2026-04-21 11:33 49.21968 20.08910 39246 ft 433 kts 77°
2026-04-21 11:33 49.22560 20.13425 38609 ft 430 kts 77°
2026-04-21 11:33 49.23147 20.17912 37956 ft 430 kts 77°
2026-04-21 11:34 49.23733 20.22419 37332 ft 432 kts 77°
2026-04-21 11:34 49.24311 20.26898 36712 ft 433 kts 77°
2026-04-21 11:34 49.24895 20.31436 36073 ft 434 kts 77°
2026-04-21 11:34 49.25482 20.35980 35442 ft 435 kts 77°
2026-04-21 11:35 49.26067 20.40533 34788 ft 436 kts 78°
2026-04-21 11:35 49.26648 20.45102 34124 ft 436 kts 78°
2026-04-21 11:35 49.27230 20.49664 33424 ft 434 kts 78°
2026-04-21 11:35 49.27800 20.54156 32771 ft 434 kts 78°
2026-04-21 11:36 49.28377 20.58706 32142 ft 434 kts 78°
2026-04-21 11:36 49.28949 20.63252 31509 ft 434 kts 78°
2026-04-21 11:36 49.29515 20.67751 30883 ft 434 kts 78°
2026-04-21 11:36 49.30087 20.72292 30254 ft 434 kts 78°
2026-04-21 11:37 49.30653 20.76832 29579 ft 430 kts 78°
2026-04-21 11:37 49.31202 20.81271 28976 ft 426 kts 78°
2026-04-21 11:37 49.31784 20.85720 28368 ft 422 kts 75°
2026-04-21 11:37 49.32732 20.89931 27760 ft 414 kts 64°
2026-04-21 11:38 49.34126 20.93696 27183 ft 406 kts 53°
2026-04-21 11:38 49.35933 20.96980 26599 ft 398 kts 43°
2026-04-21 11:38 49.38021 20.99702 26035 ft 391 kts 34°
2026-04-21 11:38 49.40312 21.01825 25557 ft 384 kts 24°
2026-04-21 11:39 49.42755 21.03348 24928 ft 369 kts 16°
2026-04-21 11:39 49.45229 21.04240 24397 ft 362 kts
2026-04-21 11:39 49.47720 21.04867 23872 ft 361 kts
2026-04-21 11:39 49.50158 21.05559 23316 ft 359 kts 10°
2026-04-21 11:40 49.52613 21.06273 22793 ft 355 kts 10°
2026-04-21 11:40 49.55047 21.06935 22280 ft 353 kts
2026-04-21 11:40 49.57470 21.07589 21769 ft 351 kts 10°
2026-04-21 11:40 49.59839 21.08262 21268 ft 348 kts 10°
2026-04-21 11:41 49.62223 21.08930 20762 ft 346 kts 10°
2026-04-21 11:41 49.64591 21.09579 20265 ft 343 kts 10°
2026-04-21 11:41 49.66937 21.10233 19769 ft 341 kts 10°
2026-04-21 11:41 49.69241 21.10875 19279 ft 339 kts 10°
2026-04-21 11:42 49.71554 21.11517 18793 ft 336 kts 10°
2026-04-21 11:42 49.73852 21.12162 18292 ft 333 kts 11°
2026-04-21 11:42 49.76131 21.12805 17787 ft 331 kts 11°
2026-04-21 11:42 49.78372 21.13420 17314 ft 329 kts 11°
2026-04-21 11:43 49.80625 21.14052 16836 ft 327 kts 11°
2026-04-21 11:43 49.82862 21.14683 16366 ft 325 kts 11°
2026-04-21 11:43 49.85066 21.15297 15900 ft 323 kts 11°
2026-04-21 11:43 49.87277 21.15921 15434 ft 320 kts 11°
2026-04-21 11:44 49.89462 21.16532 14969 ft 318 kts 11°
2026-04-21 11:44 49.91615 21.17132 14511 ft 316 kts 12°
2026-04-21 11:44 49.93717 21.18093 14044 ft 312 kts 24°
2026-04-21 11:44 49.95641 21.19631 13550 ft 309 kts 28°
2026-04-21 11:45 49.97554 21.21145 13083 ft 307 kts 26°
2026-04-21 11:45 49.99470 21.22597 12618 ft 302 kts 27°
2026-04-21 11:45 50.01274 21.24019 12175 ft 278 kts 27°
2026-04-21 11:45 50.02910 21.25328 11787 ft 260 kts 27°
2026-04-21 11:46 50.04507 21.26583 11409 ft 254 kts 27°
2026-04-21 11:46 50.06082 21.27827 11031 ft 253 kts 27°
2026-04-21 11:46 50.07633 21.29070 10656 ft 255 kts 29°
2026-04-21 11:46 50.09047 21.30838 10266 ft 256 kts 46°
2026-04-21 11:47 50.10083 21.33026 9872 ft 249 kts 59°
2026-04-21 11:47 50.10732 21.35508 9489 ft 251 kts 72°
2026-04-21 11:47 50.10978 21.38211 9109 ft 253 kts 86°
2026-04-21 11:47 50.11008 21.40944 8705 ft 252 kts 85°
2026-04-21 11:48 50.11089 21.43662 8179 ft 245 kts 84°
2026-04-21 11:48 50.11154 21.46236 7657 ft 237 kts 85°
2026-04-21 11:48 50.11205 21.48793 7139 ft 234 kts 85°
2026-04-21 11:48 50.11261 21.51310 6685 ft 231 kts 85°
2026-04-21 11:49 50.11317 21.53780 6221 ft 230 kts 85°
2026-04-21 11:49 50.11369 21.56273 5773 ft 228 kts 85°
2026-04-21 11:49 50.11416 21.58691 5353 ft 218 kts 86°
2026-04-21 11:49 50.11400 21.61011 4929 ft 209 kts 87°
2026-04-21 11:50 50.11395 21.63256 4502 ft 205 kts 87°
2026-04-21 11:50 50.11390 21.65458 4079 ft 203 kts 87°
2026-04-21 11:50 50.11377 21.67656 3698 ft 203 kts 87°
2026-04-21 11:50 50.11362 21.69837 3486 ft 198 kts 87°
2026-04-21 11:51 50.11354 21.71988 3412 ft 202 kts 87°
2026-04-21 11:51 50.11334 21.74183 3301 ft 201 kts 88°
2026-04-21 11:51 50.11306 21.76234 3187 ft 175 kts 88°
2026-04-21 11:51 50.11283 21.78006 3061 ft 157 kts 88°
2026-04-21 11:52 50.11260 21.79615 2967 ft 138 kts 86°
2026-04-21 11:52 50.11250 21.81067 2876 ft 131 kts 86°
2026-04-21 11:52 50.11235 21.82471 2790 ft 132 kts 86°
2026-04-21 11:52 50.11221 21.83920 2705 ft 136 kts 87°
2026-04-21 11:53 50.11205 21.85401 2620 ft 138 kts 86°
2026-04-21 11:53 50.11185 21.86912 2452 ft 139 kts 85°
2026-04-21 11:53 50.11166 21.88378 2243 ft 132 kts 87°
2026-04-21 11:53 50.11148 21.89759 2062 ft 127 kts 85°
2026-04-21 11:54 50.11132 21.91119 1893 ft 125 kts 86°
2026-04-21 11:54 50.11117 21.92477 1711 ft 125 kts 86°
2026-04-21 11:54 50.11098 21.93806 1526 ft 120 kts 86°
2026-04-21 11:54 50.11083 21.95080 1355 ft 116 kts 85°
2026-04-21 11:55 50.11066 21.96319 1191 ft 111 kts 85°
2026-04-21 11:55 50.11051 21.97484 1042 ft 108 kts 88°
2026-04-21 11:55 50.11040 21.98658 897 ft 108 kts 88°
2026-04-21 11:55 50.11026 21.99820 792 ft 108 kts 89°
2026-04-21 11:56 50.11009 22.00926 683 ft 90 kts 91°
2026-04-21 11:56 50.10998 22.01773 674 ft 64 kts 91°
2026-04-21 11:56 50.10992 22.02195 671 ft 26 kts 89°
2026-04-21 11:56 50.11105 22.02293 676 ft 18 kts
2026-04-21 11:57 50.11156 22.02233 680 ft 10 kts 273°
2026-04-21 11:57 50.11160 22.02107 680 ft 13 kts 270°
2026-04-21 11:57 50.11161 22.01942 680 ft 17 kts 270°
2026-04-21 11:57 50.11162 22.01743 680 ft 20 kts 271°
2026-04-21 11:58 50.11166 22.01513 680 ft 23 kts 271°
2026-04-21 11:58 50.11169 22.01260 680 ft 16 kts 271°
2026-04-21 11:58 50.11184 22.01153 679 ft 5 kts
2026-04-21 11:58 50.11219 22.01156 679 ft 7 kts
2026-04-21 11:59 50.11261 22.01157 679 ft 2 kts
2026-04-21 11:59 50.11264 22.01157 679 ft 0 kts